George, South Africa

2:06 AM SAST on May 23, 2018 (GMT +0200)
George

Weather History for FAGG - February, 2013

Change the Weather History Date:

Saturday, February 23, 2013

  Actual Average Record
Temperature  
Mean Temperature 66 °F -  
Max Temperature 74 °F 73 °F 82 °F (2002)
Min Temperature 59 °F 57 °F 51 °F (2009)
Cooling Degree Days 2    
Growing Degree Days 16 (Base 50)    
Moisture  
Dew Point 57 °F    
Average Humidity 68    
Maximum Humidity 88    
Minimum Humidity 43    
Precipitation  
Precipitation 0.00 in - - ()
Sea Level Pressure  
Sea Level Pressure 30.02 in    
Wind  
Wind Speed 7 mph ()    
Max Wind Speed 14 mph    
Max Gust Speed -    
Visibility 8.3 miles    
Events      
Averages and records for this station are not official NWS values.
T = Trace of Precipitation, MM = Missing Value Source: Averaged Metar Reports

Daily Weather History Graph

Daily Weather History Graph

Search for Another Location

Airport or City:

Astronomy

Feb. 23, 2013 Rise Set
Actual Time 6:13 AM SAST 7:14 PM SAST
Civil Twilight 5:47 AM SAST 7:39 PM SAST
Nautical Twilight 5:16 AM SAST 8:10 PM SAST
Astronomical Twilight 4:45 AM SAST 8:41 PM SAST
Moon 5:33 PM SAST 3:47 AM SAST
Length of Visible Light 13h 52m
Length of Day
13h 01m
Waxing Gibbous, 94% of the Moon is Illuminated
Feb 23
Waxing Gibbous
Feb 25
Full
Mar 4
Last Quarter
Mar 11
New
Mar 19
First Quarter

Hourly Weather History & Observations

Time (SAST) Temp. Dew Point Humidity Pressure Visibility Wind Dir Wind Speed Gust Speed Precip Events Conditions
12:00 AM 66.2 °F 62.6 °F 88% 29.98 in 6.2 mi WNW 6.9 mph - N/A   Overcast
1:00 AM 66.2 °F 59.0 °F 78% 29.98 in 6.2 mi WNW 6.9 mph - N/A   Overcast
2:00 AM 65 °F 60 °F 79% 29.98 in 12 mi NNW 5.8 mph - -  
2:00 AM 64.4 °F 59.0 °F 83% 29.98 in 6.2 mi NW 5.8 mph - N/A   Mostly Cloudy
3:00 AM 64.4 °F 57.2 °F 77% 29.98 in 6.2 mi NW 5.8 mph - N/A   Mostly Cloudy
4:00 AM 60.8 °F 55.4 °F 82% 29.98 in - NW 6.9 mph - N/A   Clear
5:00 AM 62 °F 54 °F 68% 29.97 in 19 mi NW 9.2 mph - -   Scattered Clouds
5:00 AM 62.6 °F 55.4 °F 77% 29.98 in 6.2 mi NW 10.4 mph - N/A   Partly Cloudy
6:00 AM 60.8 °F 53.6 °F 77% 29.98 in 6.2 mi WNW 8.1 mph - N/A   Partly Cloudy
7:00 AM 62.6 °F 53.6 °F 72% 30.01 in 6.2 mi WNW 8.1 mph - N/A   Partly Cloudy
8:00 AM 66 °F 55 °F 59% 30.01 in 19 mi WNW 11.5 mph - -   Scattered Clouds
8:00 AM 66.2 °F 55.4 °F 68% 30.01 in 6.2 mi WNW 12.7 mph - N/A   Partly Cloudy
9:00 AM 69.8 °F 55.4 °F 60% 30.01 in 6.2 mi West 13.8 mph - N/A   Partly Cloudy
10:00 AM 73.4 °F 53.6 °F 50% 30.04 in 6.2 mi WSW 12.7 mph - N/A   Partly Cloudy
11:00 AM 73 °F 56 °F 45% 30.02 in 19 mi SSW 13.8 mph - -   Scattered Clouds
11:00 AM 73.4 °F 55.4 °F 53% 30.04 in 6.2 mi SSW 13.8 mph - N/A   Partly Cloudy
12:00 PM 73.4 °F 59.0 °F 61% 30.04 in 6.2 mi South 11.5 mph - N/A   Partly Cloudy
1:00 PM 73.4 °F 59.0 °F 61% 30.04 in 6.2 mi SSW 11.5 mph - N/A   Partly Cloudy
2:00 PM 73 °F 58 °F 50% 30.04 in 12 mi SSW 9.2 mph - -   Scattered Clouds
2:00 PM 73.4 °F 59.0 °F 61% 30.04 in 6.2 mi SSW 9.2 mph - N/A   Partly Cloudy
3:00 PM 71.6 °F 57.2 °F 60% 30.01 in 6.2 mi SSW 12.7 mph - N/A   Partly Cloudy
4:00 PM 71.6 °F 59.0 °F 64% 30.04 in 6.2 mi South 9.2 mph - N/A   Partly Cloudy
5:00 PM 73 °F 55 °F 43% 30.05 in 12 mi South 10.4 mph - -   Scattered Clouds
5:00 PM 73.4 °F 55.4 °F 53% 30.04 in 6.2 mi South 10.4 mph - N/A   Partly Cloudy
6:00 PM 69.8 °F 59.0 °F 68% 30.04 in 6.2 mi South 6.9 mph - N/A   Scattered Clouds
7:00 PM 68.0 °F 60.8 °F 78% 30.06 in 6.2 mi SSE 4.6 mph - N/A   Scattered Clouds
8:00 PM 67 °F 60 °F 72% 30.09 in 12 mi SSE 2.3 mph - -   Partly Cloudy
8:00 PM 66.2 °F 60.8 °F 83% 30.06 in 6.2 mi Variable 2.3 mph - N/A   Scattered Clouds
9:00 PM 66.2 °F 59.0 °F 78% 30.06 in - Variable 2.3 mph - N/A   Clear
10:00 PM 66.2 °F 59.0 °F 78% 30.09 in 6.2 mi Variable 1.2 mph - N/A   Overcast
11:00 PM 66.2 °F 59.0 °F 78% 30.06 in 6.2 mi Variable 1.2 mph - N/A   Mostly Cloudy